Time,TemperatureF,DewpointF,PressureIn,WindDirection,WindDirectionDegrees,WindSpeedMPH,WindSpeedGustMPH,Humidity,HourlyPrecipIn,Conditions,Clouds,dailyrainin,SoftwareType,DateUTC
2013-08-27 00:01:00,68.5,68.0,29.91,WNW,294,0.0,0.0,98,11.14,,,48.91,meteohub,2013-08-27 04:01:00,
2013-08-27 00:02:00,68.5,68.0,29.91,WNW,294,0.0,0.0,98,11.14,,,48.91,meteohub,2013-08-27 04:02:00,
2013-08-27 00:05:00,68.5,68.0,29.91,WNW,294,0.0,0.0,98,11.14,,,50.36,meteohub,2013-08-27 04:05:00,
2013-08-27 00:10:00,68.5,68.0,29.91,WNW,294,0.0,0.0,98,12.02,,,51.80,meteohub,2013-08-27 04:10:00,
2013-08-27 00:15:00,68.5,68.0,29.90,WNW,294,0.0,0.0,98,11.54,,,52.52,meteohub,2013-08-27 04:15:00,
2013-08-27 00:20:00,68.5,68.0,29.90,WNW,294,0.0,0.0,98,11.95,,,53.95,meteohub,2013-08-27 04:20:00,
2013-08-27 00:25:00,68.5,68.0,29.90,WNW,294,0.0,0.0,98,13.18,,,55.39,meteohub,2013-08-27 04:25:00,
2013-08-27 00:31:00,68.5,68.0,29.90,WNW,294,0.0,0.0,98,12.70,,,56.11,meteohub,2013-08-27 04:31:00,
2013-08-27 00:36:00,68.5,68.0,29.90,WNW,294,0.0,0.0,98,13.14,,,57.55,meteohub,2013-08-27 04:36:00,
2013-08-27 00:41:00,68.5,68.0,29.90,WNW,294,0.0,0.0,98,13.42,,,58.89,meteohub,2013-08-27 04:41:00,
2013-08-27 00:46:00,68.5,68.0,29.90,WNW,294,0.0,0.0,98,13.21,,,59.61,meteohub,2013-08-27 04:46:00,
2013-08-27 00:51:00,68.5,68.0,29.90,WNW,294,0.0,0.0,98,13.52,,,61.05,meteohub,2013-08-27 04:51:00,
2013-08-27 00:56:00,68.5,68.0,29.90,WNW,294,0.0,0.0,98,13.10,,,61.77,meteohub,2013-08-27 04:56:00,
2013-08-27 01:01:00,68.5,68.0,29.89,WNW,294,0.0,0.0,98,13.37,,,63.21,meteohub,2013-08-27 05:01:00,
2013-08-27 01:06:00,68.5,68.0,29.89,WNW,294,0.0,0.0,98,13.71,,,64.67,meteohub,2013-08-27 05:06:00,
2013-08-27 01:12:00,68.5,68.0,29.89,WNW,294,0.0,0.0,98,13.23,,,65.39,meteohub,2013-08-27 05:12:00,
2013-08-27 01:17:00,68.7,68.2,29.89,WNW,294,0.0,0.0,98,13.37,,,66.73,meteohub,2013-08-27 05:17:00,
2013-08-27 01:22:00,68.5,68.0,29.88,WNW,294,0.0,0.0,98,12.95,,,67.38,meteohub,2013-08-27 05:22:00,
2013-08-27 01:27:00,68.5,68.0,29.88,WNW,294,0.0,0.0,98,12.22,,,67.85,meteohub,2013-08-27 05:27:00,
2013-08-27 01:32:00,68.5,68.0,29.88,WNW,294,0.0,0.0,98,11.73,,,68.56,meteohub,2013-08-27 05:32:00,
2013-08-27 01:37:00,68.4,67.8,29.88,WNW,294,0.0,0.0,98,11.21,,,69.14,meteohub,2013-08-27 05:37:00,
2013-08-27 01:42:00,68.4,67.8,29.88,WNW,294,0.0,0.0,98,11.56,,,70.57,meteohub,2013-08-27 05:42:00,
2013-08-27 01:47:00,68.2,67.6,29.88,WNW,294,0.0,0.0,98,11.90,,,71.99,meteohub,2013-08-27 05:47:00,
2013-08-27 01:52:00,68.2,67.6,29.87,WNW,294,0.0,0.0,98,11.30,,,72.71,meteohub,2013-08-27 05:52:00,
2013-08-27 01:57:00,68.2,67.6,29.87,WNW,294,0.0,0.0,98,11.62,,,74.23,meteohub,2013-08-27 05:57:00,
2013-08-27 02:02:00,68.2,67.6,29.87,WNW,294,0.0,0.0,98,10.53,,,74.24,meteohub,2013-08-27 06:02:00,
2013-08-27 02:07:00,68.0,67.5,29.86,WNW,294,0.0,0.0,98,9.71,,,74.62,meteohub,2013-08-27 06:07:00,
2013-08-27 02:12:00,67.8,67.3,29.86,WNW,294,0.0,0.0,98,8.81,,,74.84,meteohub,2013-08-27 06:12:00,
2013-08-27 02:16:00,67.8,67.3,29.85,WNW,294,0.0,0.0,98,8.49,,,75.55,meteohub,2013-08-27 06:16:00,
2013-08-27 02:22:00,67.6,67.1,29.85,WNW,294,0.0,0.0,98,9.17,,,77.02,meteohub,2013-08-27 06:22:00,
2013-08-27 02:27:00,67.6,67.1,29.85,WNW,294,0.0,0.0,98,9.88,,,77.74,meteohub,2013-08-27 06:27:00,
2013-08-27 02:32:00,67.6,67.1,29.84,WNW,294,0.0,0.0,98,10.28,,,79.06,meteohub,2013-08-27 06:32:00,
2013-08-27 02:37:00,67.6,67.1,29.84,WNW,294,0.0,0.0,98,10.60,,,80.45,meteohub,2013-08-27 06:37:00,
2013-08-27 02:42:00,67.6,67.1,29.84,WNW,294,0.0,0.0,98,10.14,,,81.17,meteohub,2013-08-27 06:42:00,
2013-08-27 02:47:00,67.6,67.1,29.83,WNW,294,0.0,0.0,98,10.29,,,82.52,meteohub,2013-08-27 06:47:00,
2013-08-27 02:52:00,67.5,67.1,29.83,WNW,294,0.0,0.0,99,9.83,,,83.24,meteohub,2013-08-27 06:52:00,
2013-08-27 02:57:00,67.5,67.1,29.83,WNW,294,0.0,0.0,99,10.57,,,84.80,meteohub,2013-08-27 06:57:00,
2013-08-27 03:02:00,67.5,67.1,29.83,WNW,294,0.0,0.0,99,11.45,,,86.02,meteohub,2013-08-27 07:02:00,
2013-08-27 03:07:00,67.5,67.1,29.83,WNW,294,0.0,0.0,99,12.04,,,86.66,meteohub,2013-08-27 07:07:00,
2013-08-27 03:12:00,67.5,67.1,29.83,WNW,294,0.0,0.0,99,12.92,,,87.99,meteohub,2013-08-27 07:12:00,
2013-08-27 03:17:00,67.5,67.1,29.83,WNW,294,0.0,0.0,99,12.71,,,88.98,meteohub,2013-08-27 07:17:00,
2013-08-27 03:22:00,67.6,67.3,29.83,WNW,294,0.0,0.0,99,11.98,,,89.24,meteohub,2013-08-27 07:22:00,
2013-08-27 03:27:00,67.6,67.3,29.83,WNW,294,0.0,0.0,99,11.58,,,90.04,meteohub,2013-08-27 07:27:00,
2013-08-27 03:32:00,67.6,67.3,29.83,WNW,294,0.0,0.0,99,11.12,,,90.78,meteohub,2013-08-27 07:32:00,
2013-08-27 03:37:00,67.6,67.3,29.83,WNW,294,0.0,0.0,99,10.81,,,91.50,meteohub,2013-08-27 07:37:00,
2013-08-27 03:42:00,67.8,67.5,29.83,WNW,294,0.0,0.0,99,11.08,,,92.94,meteohub,2013-08-27 07:42:00,
2013-08-27 03:47:00,67.8,67.5,29.82,WNW,294,0.0,0.0,99,10.74,,,93.62,meteohub,2013-08-27 07:47:00,
2013-08-27 03:52:00,67.8,67.5,29.82,WNW,294,0.0,0.0,99,10.66,,,94.74,meteohub,2013-08-27 07:52:00,
2013-08-27 03:57:00,68.0,67.6,29.82,WNW,294,0.0,0.0,99,11.03,,,96.30,meteohub,2013-08-27 07:57:00,
2013-08-27 04:02:00,68.2,67.8,29.82,WNW,294,0.0,0.0,99,10.54,,,96.89,meteohub,2013-08-27 08:02:00,
2013-08-27 04:07:00,68.4,68.0,29.81,WNW,294,0.0,0.0,99,11.00,,,98.35,meteohub,2013-08-27 08:07:00,
2013-08-27 04:12:00,68.4,68.0,29.81,WNW,294,0.0,0.0,99,10.72,,,99.07,meteohub,2013-08-27 08:12:00,
2013-08-27 04:17:00,68.2,67.8,29.81,WNW,294,0.0,0.0,99,11.51,,,99.99,meteohub,2013-08-27 08:17:00,
2013-08-27 04:22:00,68.4,68.0,29.81,WNW,294,0.0,0.0,99,11.49,,,99.99,meteohub,2013-08-27 08:22:00,
2013-08-27 04:27:00,68.4,68.0,29.81,WNW,294,0.0,0.0,99,11.35,,,99.99,meteohub,2013-08-27 08:27:00,
2013-08-27 04:32:00,68.4,68.0,29.81,WNW,294,0.0,0.0,99,12.14,,,99.99,meteohub,2013-08-27 08:32:00,
2013-08-27 04:37:00,68.4,68.0,29.81,WNW,294,0.0,0.0,99,11.40,,,99.99,meteohub,2013-08-27 08:37:00,
2013-08-27 04:42:00,68.4,68.0,29.81,WNW,294,0.0,0.0,99,10.73,,,99.99,meteohub,2013-08-27 08:42:00,
2013-08-27 04:47:00,68.5,68.2,29.81,WNW,294,0.0,0.0,99,11.54,,,99.99,meteohub,2013-08-27 08:47:00,
2013-08-27 04:52:00,68.4,68.0,29.81,WNW,294,0.0,0.0,99,10.98,,,99.99,meteohub,2013-08-27 08:52:00,
2013-08-27 04:57:00,68.5,68.2,29.81,WNW,294,0.0,0.0,99,11.33,,,99.99,meteohub,2013-08-27 08:57:00,
2013-08-27 05:02:00,68.5,68.2,29.81,WNW,294,0.0,0.0,99,10.95,,,99.99,meteohub,2013-08-27 09:02:00,
2013-08-27 05:07:00,68.5,68.2,29.81,WNW,294,0.0,0.0,99,11.19,,,99.99,meteohub,2013-08-27 09:07:00,
2013-08-27 05:12:00,68.5,68.2,29.81,WNW,294,0.0,0.0,99,11.57,,,99.99,meteohub,2013-08-27 09:12:00,
2013-08-27 05:17:00,68.5,68.2,29.80,WNW,294,0.0,0.0,99,11.09,,,99.99,meteohub,2013-08-27 09:17:00,
2013-08-27 05:22:00,68.5,68.2,29.81,WNW,294,0.0,0.0,99,12.27,,,99.99,meteohub,2013-08-27 09:22:00,
2013-08-27 05:27:00,68.7,68.4,29.81,WNW,294,0.0,0.0,99,12.62,,,99.99,meteohub,2013-08-27 09:27:00,
2013-08-27 05:32:00,68.7,68.4,29.81,WNW,294,0.0,0.0,99,12.49,,,99.99,meteohub,2013-08-27 09:32:00,
2013-08-27 05:37:00,68.7,68.4,29.81,WNW,294,0.0,0.0,99,13.41,,,99.99,meteohub,2013-08-27 09:37:00,
2013-08-27 05:42:00,68.7,68.4,29.80,WNW,294,0.0,0.0,99,13.32,,,99.99,meteohub,2013-08-27 09:42:00,
2013-08-27 05:47:00,68.7,68.4,29.80,WNW,294,0.0,0.0,99,13.53,,,99.99,meteohub,2013-08-27 09:47:00,
2013-08-27 05:52:00,68.7,68.4,29.80,WNW,294,0.0,0.0,99,13.85,,,99.99,meteohub,2013-08-27 09:52:00,
2013-08-27 05:57:00,68.7,68.4,29.80,WNW,294,0.0,0.0,99,13.37,,,99.99,meteohub,2013-08-27 09:57:00,
2013-08-27 06:02:00,68.7,68.4,29.80,WNW,294,0.0,0.0,99,13.62,,,99.99,meteohub,2013-08-27 10:02:00,
2013-08-27 06:07:00,68.7,68.4,29.80,WNW,294,0.0,0.0,99,13.94,,,99.99,meteohub,2013-08-27 10:07:00,
2013-08-27 06:12:00,68.7,68.4,29.80,WNW,294,0.0,0.0,99,13.46,,,99.99,meteohub,2013-08-27 10:12:00,
2013-08-27 06:17:00,68.7,68.4,29.80,WNW,294,0.0,0.0,99,13.70,,,99.99,meteohub,2013-08-27 10:17:00,
2013-08-27 06:22:00,68.7,68.4,29.80,WNW,294,0.0,0.0,99,13.22,,,99.99,meteohub,2013-08-27 10:22:00,
2013-08-27 06:27:00,68.7,68.4,29.81,WNW,294,0.0,0.0,99,13.47,,,99.99,meteohub,2013-08-27 10:27:00,
2013-08-27 06:32:00,68.9,68.5,29.81,WNW,294,0.0,0.0,99,13.71,,,99.99,meteohub,2013-08-27 10:32:00,
2013-08-27 06:37:00,69.1,68.7,29.81,WNW,294,0.0,0.0,99,13.23,,,99.99,meteohub,2013-08-27 10:37:00,
2013-08-27 06:42:00,69.1,68.7,29.81,WNW,294,0.0,0.0,99,13.58,,,99.99,meteohub,2013-08-27 10:42:00,
2013-08-27 06:47:00,69.1,68.7,29.81,WNW,294,0.0,0.0,99,13.98,,,99.99,meteohub,2013-08-27 10:47:00,
2013-08-27 06:52:00,69.1,68.7,29.81,WNW,294,0.0,0.0,99,13.50,,,99.99,meteohub,2013-08-27 10:52:00,
2013-08-27 06:57:00,68.9,68.5,29.81,WNW,294,0.0,0.0,99,13.75,,,99.99,meteohub,2013-08-27 10:57:00,
2013-08-27 07:02:00,68.7,68.4,29.81,WNW,294,0.0,0.0,99,13.31,,,99.99,meteohub,2013-08-27 11:02:00,
2013-08-27 07:07:00,68.7,68.4,29.81,WNW,294,0.0,0.0,99,13.55,,,99.99,meteohub,2013-08-27 11:07:00,
2013-08-27 07:12:00,68.5,68.2,29.81,WNW,294,0.0,0.0,99,13.79,,,99.99,meteohub,2013-08-27 11:12:00,
2013-08-27 07:17:00,68.5,68.2,29.81,WNW,294,0.0,0.0,99,13.31,,,99.99,meteohub,2013-08-27 11:17:00,
2013-08-27 07:22:00,68.5,68.2,29.81,WNW,294,0.0,0.0,99,12.47,,,99.99,meteohub,2013-08-27 11:22:00,
2013-08-27 07:27:00,68.4,68.0,29.81,WNW,294,0.0,0.0,99,11.28,,,99.99,meteohub,2013-08-27 11:27:00,
2013-08-27 07:32:00,68.4,68.0,29.82,WNW,294,0.0,0.0,99,11.16,,,99.99,meteohub,2013-08-27 11:32:00,
2013-08-27 07:37:00,68.4,68.0,29.82,WNW,294,0.0,0.0,99,11.23,,,99.99,meteohub,2013-08-27 11:37:00,
2013-08-27 07:42:00,68.2,67.8,29.82,WNW,294,0.0,0.0,99,10.34,,,99.99,meteohub,2013-08-27 11:42:00,
2013-08-27 07:47:00,68.2,67.8,29.82,WNW,294,0.0,0.0,99,10.01,,,99.99,meteohub,2013-08-27 11:47:00,
2013-08-27 07:52:00,68.2,67.8,29.82,WNW,294,0.0,0.0,99,9.65,,,99.99,meteohub,2013-08-27 11:52:00,
2013-08-27 07:57:00,68.2,67.8,29.82,WNW,294,0.0,0.0,99,9.89,,,99.99,meteohub,2013-08-27 11:57:00,
2013-08-27 08:02:00,68.2,67.8,29.82,WNW,294,0.0,0.0,99,10.13,,,99.99,meteohub,2013-08-27 12:02:00,
2013-08-27 08:07:00,68.2,67.8,29.82,WNW,294,0.0,0.0,99,9.65,,,99.99,meteohub,2013-08-27 12:07:00,
2013-08-27 08:12:00,68.4,68.0,29.82,WNW,294,0.0,0.0,99,10.01,,,99.99,meteohub,2013-08-27 12:12:00,
2013-08-27 08:17:00,68.4,68.0,29.82,WNW,294,0.0,0.0,99,10.53,,,99.99,meteohub,2013-08-27 12:17:00,
2013-08-27 08:22:00,68.4,68.0,29.82,WNW,294,0.0,0.0,99,11.25,,,99.99,meteohub,2013-08-27 12:22:00,
2013-08-27 08:28:00,68.4,68.0,29.81,WNW,294,0.0,0.0,99,12.20,,,99.99,meteohub,2013-08-27 12:28:00,
2013-08-27 08:33:00,68.4,68.0,29.81,WNW,294,0.0,0.0,99,12.13,,,99.99,meteohub,2013-08-27 12:33:00,
2013-08-27 08:38:00,68.2,67.8,29.81,WNW,294,0.0,0.0,99,12.40,,,99.99,meteohub,2013-08-27 12:38:00,
2013-08-27 08:43:00,68.4,68.0,29.82,WNW,294,0.0,0.0,99,13.67,,,99.99,meteohub,2013-08-27 12:43:00,
2013-08-27 08:48:00,68.4,68.0,29.82,WNW,294,0.0,0.0,99,13.24,,,99.99,meteohub,2013-08-27 12:48:00,
2013-08-27 08:53:00,68.5,68.2,29.82,WNW,294,0.0,0.0,99,13.64,,,99.99,meteohub,2013-08-27 12:53:00,
2013-08-27 08:58:00,68.5,68.2,29.82,WNW,294,0.0,0.0,99,13.88,,,99.99,meteohub,2013-08-27 12:58:00,
2013-08-27 09:04:00,68.9,68.5,29.82,WNW,294,0.0,0.0,99,13.40,,,99.99,meteohub,2013-08-27 13:04:00,
2013-08-27 09:09:00,69.1,68.7,29.83,WNW,294,0.0,0.0,99,13.60,,,99.99,meteohub,2013-08-27 13:09:00,
2013-08-27 09:14:00,69.4,69.1,29.83,WNW,294,0.0,0.0,99,12.65,,,99.99,meteohub,2013-08-27 13:14:00,
2013-08-27 09:19:00,69.6,69.3,29.83,WNW,294,0.0,0.0,99,11.45,,,99.99,meteohub,2013-08-27 13:19:00,
2013-08-27 09:24:00,69.6,69.3,29.83,WNW,294,0.0,0.0,99,10.25,,,99.99,meteohub,2013-08-27 13:24:00,
2013-08-27 09:29:00,69.6,69.3,29.83,WNW,294,0.0,0.0,99,9.17,,,99.99,meteohub,2013-08-27 13:29:00,
2013-08-27 09:34:00,69.8,69.4,29.83,WNW,294,0.0,0.0,99,7.97,,,99.99,meteohub,2013-08-27 13:34:00,
2013-08-27 09:39:00,70.0,69.6,29.83,WNW,294,0.0,0.0,99,6.77,,,99.99,meteohub,2013-08-27 13:39:00,
2013-08-27 09:45:00,70.3,70.0,29.84,WNW,294,0.0,0.0,99,5.57,,,99.99,meteohub,2013-08-27 13:45:00,
2013-08-27 09:50:00,70.7,70.3,29.84,WNW,294,0.0,0.0,99,3.37,,,99.99,meteohub,2013-08-27 13:50:00,
2013-08-27 09:55:00,70.7,70.3,29.84,WNW,294,0.0,0.0,99,2.17,,,99.99,meteohub,2013-08-27 13:55:00,
2013-08-27 10:00:00,70.7,70.3,29.84,WNW,294,0.0,0.0,99,0.97,,,99.99,meteohub,2013-08-27 14:00:00,
2013-08-27 10:05:00,70.9,70.3,29.84,WNW,294,0.0,0.0,98,0.11,,,99.99,meteohub,2013-08-27 14:05:00,
2013-08-27 10:10:00,70.9,70.3,29.84,WNW,294,0.0,0.0,98,0.00,,,99.99,meteohub,2013-08-27 14:10:00,
2013-08-27 10:15:00,71.1,70.5,29.84,WNW,294,0.0,0.0,98,0.00,,,99.99,meteohub,2013-08-27 14:15:00,
2013-08-27 10:21:00,71.1,70.5,29.84,WNW,294,0.0,0.0,98,0.00,,,99.99,meteohub,2013-08-27 14:21:00,
2013-08-27 10:26:00,71.2,70.7,29.84,WNW,294,0.0,0.0,98,0.00,,,99.99,meteohub,2013-08-27 14:26:00,
2013-08-27 10:32:00,71.4,70.9,29.85,WNW,294,0.0,0.0,98,0.01,,,99.99,meteohub,2013-08-27 14:32:00,
2013-08-27 10:37:00,71.4,70.5,29.85,WNW,294,0.0,0.0,97,0.01,,,99.99,meteohub,2013-08-27 14:37:00,
2013-08-27 10:42:00,71.4,70.2,29.85,WNW,294,0.0,0.0,96,0.01,,,99.99,meteohub,2013-08-27 14:42:00,
2013-08-27 10:47:00,72.0,71.1,29.85,WNW,294,0.0,0.0,97,0.04,,,99.99,meteohub,2013-08-27 14:47:00,
2013-08-27 10:52:00,72.5,71.2,29.85,WNW,294,0.0,0.0,96,0.04,,,99.99,meteohub,2013-08-27 14:52:00,
2013-08-27 10:57:00,72.9,71.4,29.84,WNW,294,0.0,0.0,95,0.04,,,99.99,meteohub,2013-08-27 14:57:00,
2013-08-27 11:02:00,73.0,70.9,29.85,WNW,294,0.0,0.0,93,0.04,,,99.99,meteohub,2013-08-27 15:02:00,
2013-08-27 11:07:00,73.2,71.1,29.84,WNW,294,0.0,0.0,93,0.04,,,99.99,meteohub,2013-08-27 15:07:00,
2013-08-27 11:12:00,73.6,71.8,29.84,WNW,294,0.0,0.0,94,0.04,,,99.99,meteohub,2013-08-27 15:12:00,
2013-08-27 11:17:00,74.3,72.1,29.85,WNW,294,0.0,0.0,93,0.04,,,99.99,meteohub,2013-08-27 15:17:00,
2013-08-27 11:22:00,75.0,72.5,29.85,WNW,294,0.0,0.0,92,0.04,,,99.99,meteohub,2013-08-27 15:22:00,
2013-08-27 11:27:00,75.4,72.3,29.85,WNW,294,0.0,0.0,90,0.04,,,99.99,meteohub,2013-08-27 15:27:00,
2013-08-27 11:32:00,75.6,72.7,29.84,WNW,294,0.0,0.0,91,0.03,,,99.99,meteohub,2013-08-27 15:32:00,
2013-08-27 11:37:00,76.1,72.3,29.84,WNW,294,0.0,0.0,88,0.03,,,99.99,meteohub,2013-08-27 15:37:00,
2013-08-27 11:42:00,76.5,72.7,29.84,WNW,294,0.0,0.0,88,0.03,,,99.99,meteohub,2013-08-27 15:42:00,
2013-08-27 11:47:00,76.8,73.0,29.84,WNW,294,0.0,0.0,88,0.00,,,99.99,meteohub,2013-08-27 15:47:00,
2013-08-27 11:52:00,76.8,72.3,29.84,WNW,294,0.0,0.0,86,0.00,,,99.99,meteohub,2013-08-27 15:52:00,
2013-08-27 11:57:00,77.4,72.5,29.84,WNW,294,0.0,0.0,85,0.00,,,99.99,meteohub,2013-08-27 15:57:00,
2013-08-27 12:02:00,77.4,72.1,29.84,WNW,294,0.0,0.0,84,0.00,,,99.99,meteohub,2013-08-27 16:02:00,
2013-08-27 12:07:00,76.8,72.0,29.85,WNW,294,0.0,0.0,85,0.17,,,99.99,meteohub,2013-08-27 16:07:00,
2013-08-27 12:12:00,76.8,72.3,29.84,WNW,294,0.0,0.0,86,0.20,,,99.99,meteohub,2013-08-27 16:12:00,
2013-08-27 12:17:00,77.2,73.0,29.84,WNW,294,0.0,0.0,87,0.23,,,99.99,meteohub,2013-08-27 16:17:00,
2013-08-27 12:22:00,77.4,72.5,29.84,WNW,294,0.0,0.0,85,0.57,,,99.99,meteohub,2013-08-27 16:22:00,
2013-08-27 12:27:00,77.4,72.5,29.85,WNW,294,0.0,0.0,85,0.84,,,99.99,meteohub,2013-08-27 16:27:00,
2013-08-27 12:32:00,77.7,73.2,29.84,WNW,294,0.0,0.0,86,0.99,,,99.99,meteohub,2013-08-27 16:32:00,
2013-08-27 12:37:00,78.3,73.4,29.84,WNW,294,0.0,0.0,85,1.44,,,99.99,meteohub,2013-08-27 16:37:00,
2013-08-27 12:42:00,78.6,73.8,29.84,WNW,294,0.0,0.0,85,1.57,,,99.99,meteohub,2013-08-27 16:42:00,
2013-08-27 12:47:00,79.2,73.9,29.84,WNW,294,0.0,0.0,84,1.61,,,99.99,meteohub,2013-08-27 16:47:00,
2013-08-27 12:52:00,79.5,73.6,29.84,WNW,294,0.0,0.0,82,1.65,,,99.99,meteohub,2013-08-27 16:52:00,
2013-08-27 12:57:00,79.9,73.9,29.84,WNW,294,0.0,0.0,82,2.27,,,99.99,meteohub,2013-08-27 16:57:00,
2013-08-27 13:02:00,80.2,73.0,29.84,WNW,294,0.0,0.0,79,2.77,,,99.99,meteohub,2013-08-27 17:02:00,
2013-08-27 13:07:00,79.9,73.6,29.84,WNW,294,0.0,0.0,81,3.30,,,99.99,meteohub,2013-08-27 17:07:00,
2013-08-27 13:12:00,79.9,73.6,29.85,WNW,294,0.0,0.0,81,4.11,,,99.99,meteohub,2013-08-27 17:12:00,
2013-08-27 13:18:00,79.9,73.6,29.85,WNW,294,0.0,0.0,81,4.07,,,99.99,meteohub,2013-08-27 17:18:00,
2013-08-27 13:23:00,79.7,73.0,29.85,WNW,294,0.0,0.0,80,3.68,,,99.99,meteohub,2013-08-27 17:23:00,
2013-08-27 13:28:00,79.9,73.2,29.84,WNW,294,0.0,0.0,80,3.97,,,99.99,meteohub,2013-08-27 17:28:00,
2013-08-27 13:33:00,80.2,73.9,29.84,WNW,294,0.0,0.0,81,3.79,,,99.99,meteohub,2013-08-27 17:33:00,
2013-08-27 13:38:00,80.6,73.9,29.84,WNW,294,0.0,0.0,80,3.34,,,99.99,meteohub,2013-08-27 17:38:00,
2013-08-27 13:43:00,81.1,74.3,29.84,WNW,294,0.0,0.0,80,3.93,,,99.99,meteohub,2013-08-27 17:43:00,
2013-08-27 13:48:00,81.3,73.4,29.84,WNW,294,0.0,0.0,77,4.00,,,99.99,meteohub,2013-08-27 17:48:00,
2013-08-27 13:54:00,81.3,74.1,29.85,WNW,294,0.0,0.0,79,3.99,,,99.99,meteohub,2013-08-27 17:54:00,
2013-08-27 13:59:00,81.9,73.6,29.84,WNW,294,0.0,0.0,76,3.57,,,99.99,meteohub,2013-08-27 17:59:00,
2013-08-27 14:04:00,82.2,74.3,29.84,WNW,294,0.0,0.0,77,3.02,,,99.99,meteohub,2013-08-27 18:04:00,
2013-08-27 14:09:00,82.4,74.5,29.84,WNW,294,0.0,0.0,77,2.15,,,99.99,meteohub,2013-08-27 18:09:00,
2013-08-27 14:14:00,82.6,75.0,29.84,WNW,294,0.0,0.0,78,1.74,,,99.99,meteohub,2013-08-27 18:14:00,
2013-08-27 14:19:00,82.8,74.5,29.84,WNW,294,0.0,0.0,76,1.74,,,99.99,meteohub,2013-08-27 18:19:00,
2013-08-27 14:24:00,83.1,73.9,29.83,WNW,294,0.0,0.0,74,1.74,,,99.99,meteohub,2013-08-27 18:24:00,
2013-08-27 14:30:00,83.1,73.6,29.83,WNW,294,0.0,0.0,73,1.33,,,99.99,meteohub,2013-08-27 18:30:00,
2013-08-27 14:35:00,83.1,74.3,29.83,WNW,294,0.0,0.0,75,1.46,,,99.99,meteohub,2013-08-27 18:35:00,
2013-08-27 14:40:00,83.5,74.7,29.83,WNW,294,0.0,0.0,75,2.47,,,99.99,meteohub,2013-08-27 18:40:00,
2013-08-27 14:45:00,83.7,74.5,29.83,WNW,294,0.0,0.0,74,2.50,,,99.99,meteohub,2013-08-27 18:45:00,
2013-08-27 14:50:00,83.8,74.7,29.83,WNW,294,0.0,0.0,74,2.52,,,99.99,meteohub,2013-08-27 18:50:00,
2013-08-27 14:55:00,83.8,73.8,29.83,WNW,294,0.0,0.0,72,3.75,,,99.99,meteohub,2013-08-27 18:55:00,
2013-08-27 15:00:00,83.8,73.8,29.83,WNW,294,0.0,0.0,72,4.35,,,99.99,meteohub,2013-08-27 19:00:00,
2013-08-27 15:06:00,84.0,73.9,29.83,WNW,294,0.0,0.0,72,5.79,,,99.99,meteohub,2013-08-27 19:06:00,
2013-08-27 15:11:00,84.2,74.1,29.83,WNW,294,0.0,0.0,72,5.94,,,99.99,meteohub,2013-08-27 19:11:00,
2013-08-27 15:16:00,84.2,73.8,29.83,WNW,294,0.0,0.0,71,6.06,,,99.99,meteohub,2013-08-27 19:16:00,
2013-08-27 15:21:00,84.6,75.4,29.83,WNW,294,0.0,0.0,74,6.15,,,99.99,meteohub,2013-08-27 19:21:00,
2013-08-27 15:26:00,84.7,75.2,29.82,WNW,294,0.0,0.0,73,6.15,,,99.99,meteohub,2013-08-27 19:26:00,
2013-08-27 15:31:00,84.9,74.1,29.82,WNW,294,0.0,0.0,70,5.72,,,99.99,meteohub,2013-08-27 19:31:00,
2013-08-27 15:37:00,84.9,73.6,29.83,WNW,294,0.0,0.0,69,4.76,,,99.99,meteohub,2013-08-27 19:37:00,
2013-08-27 15:42:00,84.9,74.1,29.82,WNW,294,0.0,0.0,70,4.23,,,99.99,meteohub,2013-08-27 19:42:00,
2013-08-27 15:47:00,84.7,73.9,29.82,WNW,294,0.0,0.0,70,4.24,,,99.99,meteohub,2013-08-27 19:47:00,
2013-08-27 15:52:00,84.6,73.8,29.82,WNW,294,0.0,0.0,70,3.52,,,99.99,meteohub,2013-08-27 19:52:00,
2013-08-27 15:57:00,84.7,74.3,29.82,WNW,294,0.0,0.0,71,3.71,,,99.99,meteohub,2013-08-27 19:57:00,
2013-08-27 16:02:00,84.9,73.6,29.82,WNW,294,0.0,0.0,69,2.92,,,99.99,meteohub,2013-08-27 20:02:00,
2013-08-27 16:07:00,84.7,73.0,29.82,WNW,294,0.0,0.0,68,2.07,,,99.99,meteohub,2013-08-27 20:07:00,
2013-08-27 16:12:00,84.7,73.4,29.82,WNW,294,0.0,0.0,69,3.12,,,99.99,meteohub,2013-08-27 20:12:00,
2013-08-27 16:17:00,84.7,73.4,29.82,WNW,294,0.0,0.0,69,3.57,,,99.99,meteohub,2013-08-27 20:17:00,
2013-08-27 16:22:00,84.7,72.5,29.82,WNW,294,0.0,0.0,67,4.95,,,99.99,meteohub,2013-08-27 20:22:00,
2013-08-27 16:27:00,84.7,73.4,29.82,WNW,294,0.0,0.0,69,6.51,,,99.99,meteohub,2013-08-27 20:27:00,
2013-08-27 16:32:00,84.7,73.0,29.82,WNW,294,0.0,0.0,68,7.23,,,99.99,meteohub,2013-08-27 20:32:00,
2013-08-27 16:37:00,84.7,73.4,29.81,WNW,294,0.0,0.0,69,8.67,,,99.99,meteohub,2013-08-27 20:37:00,
2013-08-27 16:42:00,84.7,72.5,29.81,WNW,294,0.0,0.0,67,10.08,,,99.99,meteohub,2013-08-27 20:42:00,
2013-08-27 16:47:00,84.7,72.5,29.81,WNW,294,0.0,0.0,67,10.66,,,99.99,meteohub,2013-08-27 20:47:00,
2013-08-27 16:52:00,84.6,72.9,29.81,WNW,294,0.0,0.0,68,11.43,,,99.99,meteohub,2013-08-27 20:52:00,
2013-08-27 16:57:00,84.4,73.0,29.81,WNW,294,0.0,0.0,69,10.59,,,99.99,meteohub,2013-08-27 20:57:00,
2013-08-27 17:02:00,84.4,72.7,29.81,WNW,294,0.0,0.0,68,10.36,,,99.99,meteohub,2013-08-27 21:02:00,
2013-08-27 17:07:00,84.6,72.0,29.81,WNW,294,0.0,0.0,66,10.23,,,99.99,meteohub,2013-08-27 21:07:00,
2013-08-27 17:17:00,84.7,72.5,29.81,WNW,294,0.0,0.0,67,9.09,,,99.99,meteohub,2013-08-27 21:17:00,
2013-08-27 17:23:00,84.7,72.5,29.82,WNW,294,0.0,0.0,67,8.35,,,99.99,meteohub,2013-08-27 21:23:00,
2013-08-27 17:31:00,84.4,72.7,29.82,WNW,294,0.0,0.0,68,6.44,,,99.99,meteohub,2013-08-27 21:31:00,
2013-08-27 17:42:00,84.4,72.7,29.82,WNW,294,0.0,0.0,68,4.66,,,99.99,meteohub,2013-08-27 21:42:00,
2013-08-27 17:47:00,84.6,72.3,29.82,WNW,294,0.0,0.0,67,4.91,,,99.99,meteohub,2013-08-27 21:47:00,
2013-08-27 17:52:00,84.6,73.2,29.82,WNW,294,0.0,0.0,69,4.28,,,99.99,meteohub,2013-08-27 21:52:00,
2013-08-27 17:57:00,84.6,73.2,29.82,WNW,294,0.0,0.0,69,4.28,,,99.99,meteohub,2013-08-27 21:57:00,
2013-08-27 18:02:00,84.4,73.6,29.83,WNW,294,0.0,0.0,70,4.28,,,99.99,meteohub,2013-08-27 22:02:00,
2013-08-27 18:08:00,83.8,73.4,29.83,WNW,294,0.0,0.0,71,4.28,,,99.99,meteohub,2013-08-27 22:08:00,
2013-08-27 18:13:00,83.5,73.9,29.83,WNW,294,0.0,0.0,73,3.88,,,99.99,meteohub,2013-08-27 22:13:00,
2013-08-27 18:18:00,82.8,73.6,29.83,WNW,294,0.0,0.0,74,2.81,,,99.99,meteohub,2013-08-27 22:18:00,
2013-08-27 18:23:00,82.2,73.6,29.83,WNW,294,0.0,0.0,75,2.54,,,99.99,meteohub,2013-08-27 22:23:00,
2013-08-27 18:28:00,82.0,73.8,29.83,WNW,294,0.0,0.0,76,2.21,,,99.99,meteohub,2013-08-27 22:28:00,
2013-08-27 18:33:00,81.7,73.4,29.83,WNW,294,0.0,0.0,76,2.21,,,99.99,meteohub,2013-08-27 22:33:00,
2013-08-27 18:38:00,81.3,73.8,29.83,WNW,294,0.0,0.0,78,2.21,,,99.99,meteohub,2013-08-27 22:38:00,
2013-08-27 18:44:00,81.0,73.0,29.83,WNW,294,0.0,0.0,77,1.11,,,99.99,meteohub,2013-08-27 22:44:00,
2013-08-27 18:49:00,80.4,73.2,29.83,WNW,294,0.0,0.0,79,0.03,,,99.99,meteohub,2013-08-27 22:49:00,
2013-08-27 18:54:00,79.9,72.0,29.84,WNW,294,0.0,0.0,77,0.00,,,99.99,meteohub,2013-08-27 22:54:00,
2013-08-27 18:59:00,79.3,72.3,29.84,WNW,294,0.0,0.0,79,0.00,,,99.99,meteohub,2013-08-27 22:59:00,
2013-08-27 19:04:00,78.8,72.5,29.84,WNW,294,0.0,0.0,81,0.00,,,99.99,meteohub,2013-08-27 23:04:00,
2013-08-27 19:10:00,78.3,72.0,29.84,WNW,294,0.0,0.0,81,0.00,,,99.99,meteohub,2013-08-27 23:10:00,
2013-08-27 19:15:00,77.7,71.4,29.84,WNW,294,0.0,0.0,81,0.00,,,99.99,meteohub,2013-08-27 23:15:00,
2013-08-27 19:20:00,77.5,72.0,29.84,WNW,294,0.0,0.0,83,0.00,,,99.99,meteohub,2013-08-27 23:20:00,
2013-08-27 19:25:00,77.2,71.6,29.84,WNW,294,0.0,0.0,83,0.00,,,99.99,meteohub,2013-08-27 23:25:00,
2013-08-27 19:30:00,76.8,71.6,29.84,WNW,294,0.0,0.0,84,0.00,,,99.99,meteohub,2013-08-27 23:30:00,
2013-08-27 19:35:00,76.6,71.8,29.84,WNW,294,0.0,0.0,85,0.00,,,99.99,meteohub,2013-08-27 23:35:00,
2013-08-27 19:41:00,76.3,71.4,29.85,WNW,294,0.0,0.0,85,0.00,,,99.99,meteohub,2013-08-27 23:41:00,
2013-08-27 19:46:00,75.7,70.9,29.85,WNW,294,0.0,0.0,85,0.00,,,99.99,meteohub,2013-08-27 23:46:00,
2013-08-27 19:51:00,75.4,70.9,29.85,WNW,294,0.0,0.0,86,0.00,,,99.99,meteohub,2013-08-27 23:51:00,
2013-08-27 19:56:00,75.2,71.1,29.85,WNW,294,0.0,0.0,87,0.00,,,99.99,meteohub,2013-08-27 23:56:00,
2013-08-27 20:01:00,74.8,70.7,29.86,WNW,294,0.0,0.0,87,0.00,,,99.99,meteohub,2013-08-28 00:01:00,
2013-08-27 20:06:00,74.7,70.9,29.86,WNW,294,0.0,0.0,88,0.00,,,0.00,meteohub,2013-08-28 00:06:00,
2013-08-27 20:11:00,74.3,70.5,29.86,WNW,294,0.0,0.0,88,0.00,,,0.00,meteohub,2013-08-28 00:11:00,
2013-08-27 20:17:00,73.9,70.5,29.86,WNW,294,0.0,0.0,89,0.00,,,0.00,meteohub,2013-08-28 00:17:00,
2013-08-27 20:22:00,73.8,70.7,29.86,WNW,294,0.0,0.0,90,0.00,,,0.00,meteohub,2013-08-28 00:22:00,
2013-08-27 20:27:00,73.4,70.3,29.86,WNW,294,0.0,0.0,90,0.00,,,0.00,meteohub,2013-08-28 00:27:00,
2013-08-27 20:32:00,73.0,70.0,29.86,WNW,294,0.0,0.0,90,0.00,,,0.00,meteohub,2013-08-28 00:32:00,
2013-08-27 20:37:00,72.9,70.2,29.86,WNW,294,0.0,0.0,91,0.00,,,0.00,meteohub,2013-08-28 00:37:00,
2013-08-27 20:42:00,72.7,70.0,29.86,WNW,294,0.0,0.0,91,0.00,,,0.00,meteohub,2013-08-28 00:42:00,
2013-08-27 20:47:00,72.3,69.6,29.86,WNW,294,0.0,0.0,91,0.00,,,0.00,meteohub,2013-08-28 00:47:00,
2013-08-27 20:52:00,72.1,69.6,29.87,WNW,294,0.0,0.0,92,0.00,,,0.00,meteohub,2013-08-28 00:52:00,
2013-08-27 20:57:00,72.1,69.6,29.87,WNW,294,0.0,0.0,92,0.00,,,0.00,meteohub,2013-08-28 00:57:00,
2013-08-27 21:02:00,72.0,69.4,29.87,WNW,294,0.0,0.0,92,0.00,,,0.00,meteohub,2013-08-28 01:02:00,
2013-08-27 21:07:00,71.8,69.6,29.87,WNW,294,0.0,0.0,93,0.00,,,0.00,meteohub,2013-08-28 01:07:00,
2013-08-27 21:12:00,71.4,69.3,29.87,WNW,294,0.0,0.0,93,0.00,,,0.00,meteohub,2013-08-28 01:12:00,
2013-08-27 21:17:00,71.4,69.6,29.87,WNW,294,0.0,0.0,94,0.00,,,0.00,meteohub,2013-08-28 01:17:00,
2013-08-27 21:22:00,71.2,69.4,29.87,WNW,294,0.0,0.0,94,0.00,,,0.00,meteohub,2013-08-28 01:22:00,
2013-08-27 21:27:00,71.1,69.3,29.87,WNW,294,0.0,0.0,94,0.00,,,0.00,meteohub,2013-08-28 01:27:00,
2013-08-27 21:32:00,70.9,69.1,29.87,WNW,294,0.0,0.0,94,0.00,,,0.00,meteohub,2013-08-28 01:32:00,
2013-08-27 21:37:00,70.9,69.1,29.87,WNW,294,0.0,0.0,94,0.00,,,0.00,meteohub,2013-08-28 01:37:00,
2013-08-27 21:43:00,70.5,68.7,29.87,WNW,294,0.0,0.0,94,0.00,,,0.00,meteohub,2013-08-28 01:43:00,
2013-08-27 21:48:00,70.5,69.1,29.88,WNW,294,0.0,0.0,95,0.00,,,0.00,meteohub,2013-08-28 01:48:00,
2013-08-27 21:53:00,70.3,68.9,29.87,WNW,294,0.0,0.0,95,0.00,,,0.00,meteohub,2013-08-28 01:53:00,
2013-08-27 21:58:00,70.2,68.7,29.88,WNW,294,0.0,0.0,95,0.00,,,0.00,meteohub,2013-08-28 01:58:00,
2013-08-27 22:03:00,70.2,68.7,29.88,WNW,294,0.0,0.0,95,0.00,,,0.00,meteohub,2013-08-28 02:03:00,
2013-08-27 22:09:00,70.0,68.5,29.88,WNW,294,0.0,0.0,95,0.00,,,0.00,meteohub,2013-08-28 02:09:00,
2013-08-27 22:14:00,70.0,68.5,29.88,WNW,294,0.0,0.0,95,0.00,,,0.00,meteohub,2013-08-28 02:14:00,
2013-08-27 22:19:00,69.6,68.4,29.88,WNW,294,0.0,0.0,96,0.00,,,0.00,meteohub,2013-08-28 02:19:00,
2013-08-27 22:24:00,69.6,68.4,29.88,WNW,294,0.0,0.0,96,0.00,,,0.00,meteohub,2013-08-28 02:24:00,
2013-08-27 22:29:00,69.6,68.4,29.88,WNW,294,0.0,0.0,96,0.40,,,0.40,meteohub,2013-08-28 02:29:00,
2013-08-27 22:34:00,69.4,68.2,29.88,WNW,294,0.0,0.0,96,1.78,,,1.78,meteohub,2013-08-28 02:34:00,
2013-08-27 22:39:00,69.4,68.2,29.89,WNW,294,0.0,0.0,96,3.07,,,3.07,meteohub,2013-08-28 02:39:00,
2013-08-27 22:44:00,69.3,68.0,29.89,WNW,294,0.0,0.0,96,3.16,,,3.16,meteohub,2013-08-28 02:44:00,
2013-08-27 22:50:00,69.3,68.0,29.89,WNW,294,0.0,0.0,96,3.16,,,4.12,meteohub,2013-08-28 02:50:00,
2013-08-27 22:55:00,69.3,68.0,29.89,WNW,294,0.0,0.0,96,4.12,,,4.12,meteohub,2013-08-28 02:55:00,
2013-08-27 23:00:00,69.1,68.2,29.89,WNW,294,0.0,0.0,97,5.72,,,5.72,meteohub,2013-08-28 03:00:00,
2013-08-27 23:05:00,69.1,67.8,29.90,WNW,294,0.0,0.0,96,6.41,,,6.41,meteohub,2013-08-28 03:05:00,
2013-08-27 23:10:00,68.9,67.6,29.90,WNW,294,0.0,0.0,96,7.85,,,7.85,meteohub,2013-08-28 03:10:00,
2013-08-27 23:16:00,68.7,67.5,29.90,WNW,294,0.0,0.0,96,8.27,,,8.27,meteohub,2013-08-28 03:16:00,
2013-08-27 23:21:00,68.7,67.5,29.90,WNW,294,0.0,0.0,96,8.11,,,8.27,meteohub,2013-08-28 03:21:00,
2013-08-27 23:26:00,68.7,67.5,29.90,WNW,294,0.0,0.0,96,7.60,,,8.90,meteohub,2013-08-28 03:26:00,
2013-08-27 23:31:00,68.5,67.3,29.89,WNW,294,0.0,0.0,96,7.61,,,10.11,meteohub,2013-08-28 03:31:00,
2013-08-27 23:36:00,68.4,67.1,29.89,WNW,294,0.0,0.0,96,7.79,,,10.95,meteohub,2013-08-28 03:36:00,
2013-08-27 23:42:00,68.4,67.5,29.89,WNW,294,0.0,0.0,97,9.11,,,12.27,meteohub,2013-08-28 03:42:00,
2013-08-27 23:47:00,68.2,66.9,29.89,WNW,294,0.0,0.0,96,9.45,,,12.97,meteohub,2013-08-28 03:47:00,
2013-08-27 23:52:00,68.2,66.9,29.89,WNW,294,0.0,0.0,96,8.82,,,13.42,meteohub,2013-08-28 03:52:00,
2013-08-27 23:57:00,68.0,67.1,29.89,WNW,294,0.0,0.0,97,8.50,,,14.18,meteohub,2013-08-28 03:57:00,